Date String (YYYY-MM-DD hh:mm:ss) UTC,Instrument flags,Ambient pressure (hPa),Sample flow (lpm),Bypass flow (lpm),Sample temperature (°C),Ambient temperature (°C),ASC tube jacket temperature (°C),LED temperature (°C),Box temperature (°C),Sample RH (%),Span deviation,Mass concentration (μg/m³),Mass concentration (μg/m³),Mass concentration (μg/m³)
DateTimeUTC,F1_M11,P_M11,Q1_M11,Q2_M11,T1_M11,T2_M11,T3_M11,T4_M11,T5_M11,U1_M11,ZSPAN_M11,X0_M11,X2_M11,X1_M11
2022-10-01 06:00:00,,0826.5,5.00,0.00,30.5,29.1,00.0,39.2,32.3,23.5,0000.0,0001.21,0000.62,0000.34
2022-10-01 06:01:00,,0826.5,4.99,0.00,30.5,29.1,00.0,39.2,32.3,23.6,0000.0,0001.29,0000.65,0000.35
2022-10-01 06:02:00,,0826.5,5.00,0.00,30.5,29.1,00.0,39.2,32.3,23.7,0000.0,0001.16,0000.64,0000.35
2022-10-01 06:03:00,,0826.4,5.01,0.00,30.5,29.1,00.0,39.2,32.3,23.6,0000.0,0001.20,0000.68,0000.35
2022-10-01 06:04:00,,0826.4,5.00,0.00,30.5,29.1,00.0,39.2,32.3,23.3,0000.0,0001.44,0000.71,0000.36
2022-10-01 06:05:00,,0826.4,4.99,0.00,30.5,29.1,00.0,39.2,32.3,23.2,0000.0,0001.53,0000.73,0000.36
2022-10-01 06:06:00,,0826.4,4.99,0.00,30.5,29.0,00.0,39.2,32.3,23.3,0000.0,0001.57,0000.74,0000.37
2022-10-01 06:07:00,,0826.5,5.01,0.00,30.5,29.0,00.0,39.2,32.3,23.3,0000.0,0001.62,0000.75,0000.37
2022-10-01 06:08:00,,0826.5,5.00,0.00,30.5,29.1,00.0,39.2,32.3,23.4,0000.0,0001.72,0000.76,0000.38
2022-10-01 06:09:00,,0826.5,4.99,0.00,30.5,29.0,00.0,39.3,32.3,23.1,0000.0,0001.83,0000.80,0000.39
2022-10-01 06:10:00,,0826.5,5.00,0.00,30.5,29.0,00.0,39.3,32.3,22.5,0000.0,0001.90,0000.82,0000.39
2022-10-01 06:11:00,,0826.5,5.00,0.00,30.5,29.0,00.0,39.3,32.3,22.3,0000.0,0001.81,0000.79,0000.38
2022-10-01 06:12:00,,0826.5,4.99,0.00,30.5,29.1,00.0,39.3,32.3,22.2,0000.0,0001.82,0000.79,0000.38
2022-10-01 06:13:00,,0826.4,5.00,0.00,30.5,29.1,00.0,39.3,32.3,22.5,0000.0,0001.90,0000.83,0000.38
2022-10-01 06:14:00,,0826.5,5.00,0.00,30.5,29.1,00.0,39.3,32.3,22.6,0000.0,0001.86,0000.80,0000.38
2022-10-01 06:15:00,,0826.5,5.00,0.00,30.5,29.1,00.0,39.3,32.3,22.5,0000.0,0001.61,0000.76,0000.38
2022-10-01 06:16:00,,0826.5,4.99,0.00,30.5,29.1,00.0,39.3,32.3,22.2,0000.0,0001.50,0000.74,0000.39
2022-10-01 06:17:00,,0826.5,5.00,0.00,30.5,29.1,00.0,39.3,32.3,22.4,0000.0,0001.40,0000.71,0000.38
2022-10-01 06:18:00,,0826.5,5.01,0.00,30.5,29.1,00.0,39.3,32.4,23.1,0000.0,0001.49,0000.75,0000.38
2022-10-01 06:19:00,,0826.5,5.01,0.00,30.5,29.1,00.0,39.3,32.4,24.5,0000.0,0001.43,0000.74,0000.38
2022-10-01 06:20:00,,0826.5,4.99,0.00,30.5,29.1,00.0,39.3,32.4,24.7,0000.0,0001.34,0000.71,0000.38
2022-10-01 06:21:00,,0826.6,5.00,0.00,30.5,29.1,00.0,39.3,32.4,24.5,0000.0,0001.36,0000.74,0000.37
2022-10-01 06:22:00,,0826.6,5.01,0.00,30.5,29.1,00.0,39.3,32.4,24.1,0000.0,0001.37,0000.74,0000.37
2022-10-01 06:23:00,,0826.6,5.00,0.00,30.5,29.1,00.0,39.3,32.4,24.2,0000.0,0001.32,0000.71,0000.37
2022-10-01 06:24:00,,0826.7,4.99,0.00,30.5,29.1,00.0,39.3,32.3,24.1,0000.0,0001.29,0000.69,0000.37
2022-10-01 06:25:00,,0826.7,5.00,0.00,30.5,29.1,00.0,39.3,32.4,24.1,0000.0,0001.45,0000.74,0000.37
2022-10-01 06:26:00,,0826.7,5.00,0.00,30.5,29.1,00.0,39.3,32.4,24.0,0000.0,0001.50,0000.75,0000.37
2022-10-01 06:27:00,,0826.7,5.01,0.00,30.5,29.0,00.0,39.3,32.4,23.8,0000.0,0001.55,0000.76,0000.36
2022-10-01 06:28:00,,0826.5,5.00,0.00,30.5,29.0,00.0,39.3,32.4,23.9,0000.0,0001.62,0000.77,0000.36
2022-10-01 06:29:00,,0826.5,5.00,0.00,30.5,29.0,00.0,39.3,32.4,23.8,0000.0,0001.50,0000.72,0000.36
2022-10-01 06:30:00,,0826.5,4.99,0.00,30.5,29.0,00.0,39.3,32.3,23.3,0000.0,0001.45,0000.70,0000.36
2022-10-01 06:31:00,,0826.5,5.01,0.00,30.5,29.0,00.0,39.3,32.4,22.3,0000.0,0001.45,0000.70,0000.36
2022-10-01 06:32:00,,0826.5,5.01,0.00,30.5,29.0,00.0,39.3,32.4,21.8,0000.0,0001.40,0000.67,0000.36
2022-10-01 06:33:00,,0826.4,5.00,0.00,30.5,29.0,00.0,39.3,32.4,21.6,0000.0,0001.42,0000.68,0000.36
2022-10-01 06:34:00,,0826.4,4.99,0.00,30.5,29.0,00.0,39.3,32.4,21.6,0000.0,0001.42,0000.69,0000.36
2022-10-01 06:35:00,,0826.3,5.00,0.00,30.6,29.1,00.0,39.3,32.4,21.2,0000.0,0001.33,0000.66,0000.36
2022-10-01 06:36:00,,0826.3,5.00,0.00,30.6,29.1,00.0,39.3,32.4,21.0,0000.0,0001.17,0000.61,0000.35
2022-10-01 06:37:00,,0826.2,4.98,0.00,30.6,29.1,00.0,39.3,32.4,20.6,0000.0,0001.11,0000.59,0000.35
2022-10-01 06:38:00,,0826.3,5.01,0.00,30.6,29.1,00.0,39.3,32.4,20.3,0000.0,0001.08,0000.58,0000.35
2022-10-01 06:39:00,,0826.4,5.01,0.00,30.6,29.1,00.0,39.3,32.4,20.2,0000.0,0000.98,0000.55,0000.34
2022-10-01 06:40:00,,0826.5,4.99,0.00,30.6,29.1,00.0,39.3,32.4,20.1,0000.0,0000.93,0000.53,0000.34
2022-10-01 06:41:00,,0826.5,5.01,0.00,30.6,29.1,00.0,39.3,32.4,20.0,0000.0,0000.87,0000.52,0000.34
2022-10-01 06:42:00,,0826.5,5.00,0.00,30.6,29.1,00.0,39.3,32.4,20.0,0000.0,0000.93,0000.53,0000.33
2022-10-01 06:43:00,,0826.5,5.00,0.00,30.6,29.1,00.0,39.3,32.4,19.9,0000.0,0001.00,0000.54,0000.32
2022-10-01 06:44:00,,0826.5,5.00,0.00,30.6,29.1,00.0,39.3,32.4,20.0,0000.0,0001.00,0000.53,0000.32
2022-10-01 06:45:00,,0826.5,5.01,0.00,30.6,29.1,00.0,39.3,32.4,20.1,0000.0,0001.13,0000.54,0000.32
2022-10-01 06:46:00,,0826.5,5.00,0.00,30.6,29.1,00.0,39.3,32.4,20.2,0000.0,0001.21,0000.57,0000.32
2022-10-01 06:47:00,,0826.5,4.99,0.00,30.6,29.1,00.0,39.3,32.4,20.3,0000.0,0001.39,0000.62,0000.33
2022-10-01 06:48:00,,0826.5,5.01,0.00,30.6,29.1,00.0,39.3,32.4,20.1,0000.0,0001.40,0000.62,0000.33
2022-10-01 06:49:00,,0826.5,4.99,0.00,30.6,29.1,00.0,39.4,32.4,19.9,0000.0,0001.44,0000.63,0000.33
2022-10-01 06:50:00,,0826.5,5.00,0.00,30.6,29.2,00.0,39.4,32.4,20.0,0000.0,0001.51,0000.65,0000.33
2022-10-01 06:51:00,,0826.4,4.99,0.00,30.6,29.1,00.0,39.4,32.4,20.6,0000.0,0001.64,0000.68,0000.33
2022-10-01 06:52:00,,0826.4,5.01,0.00,30.6,29.1,00.0,39.4,32.4,21.1,0000.0,0001.68,0000.71,0000.34
2022-10-01 06:53:00,,0826.3,5.01,0.00,30.6,29.0,00.0,39.4,32.4,22.0,0000.0,0001.65,0000.71,0000.34
2022-10-01 06:54:00,,0826.4,5.00,0.00,30.6,29.1,00.0,39.3,32.4,22.7,0000.0,0001.64,0000.71,0000.35
2022-10-01 06:55:00,,0826.4,4.99,0.00,30.6,29.1,00.0,39.4,32.4,22.7,0000.0,0001.70,0000.75,0000.36
2022-10-01 06:56:00,,0826.4,5.00,0.00,30.6,29.1,00.0,39.4,32.4,22.9,0000.0,0001.65,0000.78,0000.36
2022-10-01 06:57:00,,0826.3,5.00,0.00,30.6,28.2,00.0,39.3,32.4,23.3,0000.0,0001.77,0000.81,0000.37
2022-10-01 06:58:00,,0826.3,5.01,0.00,30.6,26.9,00.0,39.3,32.2,23.7,0000.0,0001.72,0000.80,0000.37
2022-10-01 06:59:00,,0826.2,5.00,0.00,30.5,26.6,00.0,39.2,32.1,23.7,0000.0,0001.82,0000.87,0000.39
